カタログに戻る

HEAD-3D

運用中科学LEO
NORAD 57629·PAYLOAD·🇨🇳 China

打ち上げ Aug 14, 2023 から Xichang Satellite Launch Center

Loading…

次のパス (今後24時間)

TLE

最新Source: Space-Track

元期: Sep 14, 2026, 10:58 UTC

1 57629U 23121D   26257.45731794  .00000465  00000-0  12127-3 0  9991
2 57629  45.0044 214.0659 0007908   3.6593 356.4321 14.63045105164874

AllMySatでHEAD-3Dをリアルタイム追跡

Download on the App Store